| time (UTC) | temp F | wind direction | speed MPH | gust MPH | rain 1hr in | rain 24hr in | rain mn in | humidity % | barometer mb |
| 20260507134532 | 44 | 237 | 0.0 | 5.0 | 0.00 | 0.00 | 0.00 | 84 | 1018.5 |
| 20260507133029 | 42 | 226 | 0.0 | 4.0 | 0.00 | 0.00 | 0.00 | 87 | 1018.6 |
| 20260507131530 | 40 | 250 | 0.0 | 4.0 | 0.00 | 0.00 | 0.00 | 88 | 1018.9 |
| 20260507130120 | 39 | 251 | 0.0 | 7.0 | 0.00 | 0.00 | 0.00 | 89 | 1018.9 |
| 20260507124519 | 37 | 263 | 0.0 | 4.0 | 0.00 | 0.00 | 0.00 | 90 | 1019.2 |
| 20260507123016 | 37 | 243 | 0.0 | 5.0 | 0.00 | 0.00 | 0.00 | 91 | 1019.2 |
| 20260507121516 | 36 | 243 | 0.0 | 6.0 | 0.00 | 0.00 | 0.00 | 91 | 1019.4 |
| 20260507120035 | 36 | 234 | 0.0 | 4.0 | 0.00 | 0.00 | 0.00 | 92 | 1019.3 |
| 20260507114513 | 35 | 246 | 0.0 | 3.0 | 0.00 | 0.00 | 0.00 | 93 | 1019.3 |
| 20260507113033 | 35 | 252 | 0.0 | 3.0 | 0.00 | 0.00 | 0.00 | 93 | 1019.4 |
| 20260507111512 | 35 | 246 | 0.0 | 4.0 | 0.00 | 0.00 | 0.00 | 93 | 1019.4 |
| 20260507110011 | 35 | 250 | 0.0 | 5.0 | 0.00 | 0.00 | 0.00 | 93 | 1019.7 |
| 20260507104506 | 34 | 243 | 0.0 | 2.0 | 0.00 | 0.00 | 0.00 | 93 | 1019.9 |
| 20260507103008 | 34 | 245 | 0.0 | 2.0 | 0.00 | 0.00 | 0.00 | 93 | 1020.0 |
| 20260507101502 | 35 | 235 | 0.0 | 2.0 | 0.00 | 0.00 | 0.00 | 93 | 1020.2 |
| 20260507100105 | 35 | 257 | 0.0 | 2.0 | 0.00 | 0.00 | 0.00 | 93 | 1020.4 |
| 20260507094559 | 35 | 239 | 0.0 | 3.0 | 0.00 | 0.00 | 0.00 | 93 | 1020.5 |
| 20260507093056 | 35 | 245 | 0.0 | 4.0 | 0.00 | 0.00 | 0.00 | 93 | 1020.8 |
| 20260507091554 | 35 | 219 | 0.0 | 2.0 | 0.00 | 0.00 | 0.00 | 93 | 1020.6 |
| 20260507090055 | 35 | 224 | 0.0 | 3.0 | 0.00 | 0.00 | 0.00 | 93 | 1020.8 |
| 20260507084550 | 35 | 245 | 0.0 | 4.0 | 0.00 | 0.00 | 0.00 | 93 | 1020.9 |
| 20260507083048 | 35 | 242 | 0.0 | 2.0 | 0.00 | 0.00 | 0.00 | 93 | 1021.1 |
| 20260507081548 | 36 | 221 | 0.0 | 2.0 | 0.00 | 0.00 | 0.00 | 93 | 1021.3 |
| 20260507080043 | 36 | 229 | 0.0 | 3.0 | 0.00 | 0.00 | 0.00 | 93 | 1021.6 |
| 20260507074542 | 36 | 271 | 0.0 | 2.0 | 0.00 | 0.00 | 0.00 | 93 | 1021.9 |
| 20260507073046 | 36 | 264 | 0.0 | 2.0 | 0.00 | 0.00 | 0.00 | 93 | 1022.0 |
| 20260507071538 | 36 | 232 | 0.0 | 2.0 | 0.00 | 0.00 | 0.00 | 93 | 1022.1 |
| 20260507070040 | 36 | 230 | 0.0 | 1.0 | 0.00 | 0.00 | 0.00 | 93 | 1022.4 |
| 20260507064542 | 36 | 208 | 0.0 | 2.0 | 0.00 | 0.00 | 0.00 | 92 | 1022.5 |
| 20260507063035 | 37 | 240 | 0.0 | 1.0 | 0.00 | 0.00 | 0.00 | 92 | 1022.8 |
| 20260507061536 | 37 | 242 | 0.0 | 1.0 | 0.00 | 0.00 | 0.00 | 92 | 1022.7 |
| 20260507060026 | 37 | 251 | 0.0 | 1.0 | 0.00 | 0.00 | 0.00 | 92 | 1022.8 |
| 20260507053005 | 38 | 222 | 0.0 | 3.0 | 0.00 | 0.00 | 0.00 | 92 | 1023.1 |
| 20260507051502 | 38 | 259 | 0.0 | 2.0 | 0.00 | 0.00 | 0.00 | 92 | 1023.2 |
| 20260507050100 | 38 | 246 | 0.0 | 2.0 | 0.00 | 0.00 | 0.00 | 92 | 1023.4 |
| 20260507044600 | 38 | 247 | 0.0 | 2.0 | 0.00 | 0.00 | 0.00 | 92 | 1023.5 |
| 20260507043058 | 38 | 259 | 0.0 | 1.0 | 0.00 | 0.00 | 0.00 | 93 | 1023.5 |
| 20260507041601 | 38 | 249 | 0.0 | 0.0 | 0.00 | 0.00 | 0.00 | 93 | 1023.4 |
| 20260507040105 | 39 | 263 | 0.0 | 0.0 | 0.00 | 0.00 | 0.00 | 92 | 1023.5 |
| 20260507034618 | 39 | 262 | 0.0 | 0.0 | 0.00 | 0.00 | 0.00 | 92 | 1023.5 |
| 20260507033105 | 39 | 269 | 0.0 | 0.0 | 0.00 | 0.00 | 0.00 | 92 | 1023.4 |
| 20260507031553 | 40 | 237 | 0.0 | 1.0 | 0.00 | 0.00 | 0.00 | 92 | 1023.4 |
| 20260507030053 | 39 | 245 | 0.0 | 0.0 | 0.00 | 0.00 | 0.00 | 91 | 1023.2 |
| 20260507024557 | 40 | 259 | 0.0 | 0.0 | 0.00 | 0.00 | 0.00 | 90 | 1023.0 |
| 20260507023052 | 40 | 248 | 0.0 | 0.0 | 0.00 | 0.00 | 0.00 | 89 | 1022.9 |
| 20260507021558 | 42 | 263 | 0.0 | 0.0 | 0.00 | 0.00 | 0.00 | 88 | 1022.6 |
| 20260507020050 | 43 | 262 | 0.0 | 0.0 | 0.00 | 0.00 | 0.00 | 87 | 1022.5 |
| 20260507014552 | 44 | 252 | 0.0 | 0.0 | 0.00 | 0.00 | 0.00 | 85 | 1022.2 |
| 20260507013103 | 45 | 257 | 0.0 | 0.0 | 0.00 | 0.00 | 0.00 | 84 | 1022.3 |
| 20260507011548 | 45 | 243 | 0.0 | 0.0 | 0.00 | 0.00 | 0.00 | 84 | 1022.4 |
| 20260507010052 | 45 | 254 | 0.0 | 1.0 | 0.00 | 0.00 | 0.00 | 83 | 1022.5 |
| 20260507004546 | 46 | 285 | 0.0 | 2.0 | 0.00 | 0.00 | 0.00 | 80 | 1022.4 |
| 20260507003046 | 46 | 295 | 0.0 | 3.0 | 0.00 | 0.00 | 0.00 | 83 | 1022.1 |
| 20260507001606 | 46 | 271 | 0.0 | 3.0 | 0.00 | 0.00 | 0.00 | 84 | 1022.9 |
| 20260507000045 | 46 | 283 | 0.0 | 2.0 | 0.00 | 0.00 | 0.00 | 82 | 1022.6 |
| 20260506234555 | 46 | 289 | 0.0 | 2.0 | 0.00 | 0.00 | 0.00 | 81 | 1022.5 |
| 20260506233044 | 47 | 269 | 0.0 | 0.0 | 0.00 | 0.00 | 0.00 | 79 | 1022.5 |
| 20260506231543 | 47 | 292 | 0.0 | 2.0 | 0.00 | 0.00 | 0.00 | 78 | 1022.4 |
| 20260506230043 | 47 | 301 | 0.0 | 2.0 | 0.00 | 0.00 | 0.00 | 77 | 1022.4 |
| 20260506224552 | 48 | 276 | 0.0 | 0.0 | 0.00 | 0.00 | 0.00 | 74 | 1022.2 |
| 20260506223040 | 48 | 278 | 0.0 | 0.0 | 0.00 | 0.00 | 0.00 | 73 | 1022.2 |
| 20260506221540 | 48 | 237 | 0.0 | 1.0 | 0.00 | 0.00 | 0.00 | 74 | 1022.4 |
| 20260506220045 | 49 | 245 | 0.0 | 1.0 | 0.00 | 0.00 | 0.00 | 72 | 1022.3 |
| 20260506214538 | 49 | 127 | 0.0 | 1.0 | 0.00 | 0.00 | 0.00 | 74 | 1022.4 |
| 20260506213037 | 49 | 131 | 0.0 | 0.0 | 0.00 | 0.00 | 0.00 | 73 | 1022.6 |
| 20260506211540 | 49 | 179 | 0.0 | 0.0 | 0.00 | 0.00 | 0.00 | 73 | 1022.7 |
| 20260506210035 | 49 | 245 | 0.0 | 0.0 | 0.00 | 0.00 | 0.00 | 73 | 1022.7 |
| 20260506204537 | 48 | 328 | 0.0 | 0.0 | 0.00 | 0.00 | 0.00 | 75 | 1022.6 |
| 20260506203032 | 48 | 58 | 0.0 | 0.0 | 0.00 | 0.00 | 0.00 | 77 | 1023.0 |
| 20260506201531 | 47 | 203 | 0.0 | 0.0 | 0.00 | 0.00 | 0.00 | 75 | 1023.1 |
| 20260506200029 | 48 | 177 | 0.0 | 0.0 | 0.00 | 0.00 | 0.00 | 76 | 1023.0 |
| 20260506194534 | 47 | 63 | 0.0 | 1.0 | 0.00 | 0.00 | 0.00 | 79 | 1023.0 |
| 20260506193026 | 47 | 360 | 0.0 | 0.0 | 0.00 | 0.00 | 0.00 | 80 | 1023.2 |
| 20260506191526 | 47 | 323 | 0.0 | 0.0 | 0.00 | 0.00 | 0.00 | 81 | 1023.3 |
| 20260506190023 | 45 | 354 | 0.0 | 0.0 | 0.00 | 0.00 | 0.00 | 83 | 1023.5 |
| 20260506184521 | 45 | 51 | 0.0 | 0.0 | 0.00 | 0.00 | 0.00 | 88 | 1023.6 |
| 20260506183018 | 44 | 227 | 0.0 | 0.0 | 0.00 | 0.00 | 0.00 | 87 | 1023.8 |
| 20260506181514 | 43 | 292 | 0.0 | 0.0 | 0.00 | 0.00 | 0.00 | 90 | 1024.0 |
| 20260506180013 | 43 | 323 | 0.0 | 0.0 | 0.00 | 0.00 | 0.00 | 91 | 1024.0 |
| 20260506174510 | 42 | 38 | 0.0 | 0.0 | 0.00 | 0.00 | 0.00 | 90 | 1024.0 |
| 20260506173007 | 41 | 352 | 0.0 | 0.0 | 0.00 | 0.00 | 0.00 | 90 | 1023.9 |
| 20260506171504 | 40 | 307 | 0.0 | 0.0 | 0.00 | 0.00 | 0.00 | 90 | 1024.1 |
| 20260506170002 | 40 | 6 | 0.0 | 0.0 | 0.00 | 0.00 | 0.00 | 91 | 1024.0 |
| 20260506164559 | 39 | 4 | 0.0 | 0.0 | 0.00 | 0.00 | 0.00 | 92 | 1023.7 |
| 20260506163057 | 39 | 109 | 0.0 | 0.0 | 0.00 | 0.00 | 0.00 | 92 | 1023.5 |
| 20260506161555 | 39 | 317 | 0.0 | 0.0 | 0.00 | 0.00 | 0.00 | 92 | 1023.4 |
| 20260506160109 | 38 | 358 | 0.0 | 0.0 | 0.00 | 0.00 | 0.00 | 92 | 1023.4 |
| 20260506154553 | 0 | 0.0 | 0.0 | 0.00 | 0.00 | 0.00 | 1023.3 | ||
| 20260506153053 | 0 | 0.0 | 0.0 | 0.00 | 0.00 | 0.00 | 1023.3 | ||
| 20260506151548 | 0 | 0.0 | 0.0 | 0.00 | 0.00 | 0.00 | 1023.3 | ||
| 20260506150048 | 0 | 0.0 | 0.0 | 0.00 | 0.00 | 0.00 | 1023.3 | ||
| 20260506144542 | 0 | 0.0 | 0.0 | 0.00 | 0.00 | 0.00 | 1023.1 | ||
| 20260506143036 | 0 | 0.0 | 0.0 | 0.00 | 0.00 | 0.00 | 1022.9 | ||
| 20260506141530 | 0 | 0.0 | 0.0 | 0.00 | 0.00 | 0.00 | 1022.7 | ||
| 20260506140026 | 0 | 0.0 | 0.0 | 0.00 | 0.00 | 0.00 | 1022.9 |